Miscellaneous Local Product
Issued by NWS Hastings, NE

Home | Current Version | Previous Version | Graphics & Text | Print | Product List | Glossary On
Versions: 1 2 3 4 5 6 7 8 9 10 11 12 13 14 15 16 17 18 19 20 21 22 23 24 25 26 27 28 29 30 31 32 33 34 35 36 37 38 39 40 41 42 43 44 45 46 47 48 49 50
430
AXUS43 KGID 051602
MISGRI

GID CWA HOURLY WEATHER ROUNDUP
NATIONAL WEATHER SERVICE HASTINGS NE
1000 AM CST MON DEC 05 2016

NOTE: "FAIR" INDICATES FEW OR NO CLOUDS BELOW 12,000 FEET WITH NO
SIGNIFICANT WEATHER AND/OR OBSTRUCTIONS TO VISIBILITY.

...SOUTH CENTRAL NEBRASKA...

CITY           SKY/WX    TMP DP  RH WIND       PRES   REMARKS
GRAND ISLAND   MOSUNNY   39  29  67 SW13      29.64R WCI  31
HASTINGS       CLOUDY    38  28  67 S12       29.64S WCI  30
KEARNEY        CLOUDY    37  27  65 S8        29.61S WCI  31
ORD            CLOUDY    38  24  57 S9        29.57F WCI  31
YORK           CLOUDY    39  32  75 S14       29.66S WCI  31
AURORA         MOSUNNY   37  30  75 S12       29.64R WCI  29
LEXINGTON      CLOUDY    37  27  66 CALM      29.60S
HOLDREGE       CLOUDY    38  27  66 S7        29.60F WCI  32
HEBRON         SUNNY     38  30  74 S14G20    29.68F WCI  29

...NEBRASKA PANHANDLE...

CITY           SKY/WX    TMP DP  RH WIND       PRES   REMARKS
CHADRON        NOT AVBL
ALLIANCE       NOT AVBL
SCOTTSBLUFF    SUNNY     47  23  38 W12       29.55S
SIDNEY         NOT AVBL

...WESTERN AND NORTH CENTRAL NEBRASKA...

CITY           SKY/WX    TMP DP  RH WIND       PRES   REMARKS
VALENTINE      NOT AVBL
AINSWORTH      MOSUNNY   49  27  42 W12       29.48F
ONEILL         CLOUDY    40  25  55 S12       29.52S WCI  33
BROKEN BOW     NOT AVBL
NORTH PLATTE   CLOUDY    36  22  56 S5        29.60R WCI  32
MCCOOK         NOT AVBL

...EASTERN NEBRASKA...

CITY           SKY/WX    TMP DP  RH WIND       PRES   REMARKS
NORFOLK        FAIR      38  28  67 S20G29    29.60F WCI  28
SO SIOUX CITY  FAIR      43  31  62 S16       29.65F
TEKAMAH        FAIR      36  31  82 S14       29.70F WCI  27
COLUMBUS       FAIR      43  28  56 S20G28    29.64F
ALBION         FAIR      38  29  69 S13       29.61S WCI  30
OMAHA EPPLEY   PTSUNNY   41  32  70 S17       29.74F
OFFUTT AFB     CLOUDY    39  37  93 S15       29.75F WCI  30
MILLARD        FAIR      38  32  77 SE10      29.75S WCI  32
LINCOLN        CLOUDY    39  31  72 S16       29.71F WCI  30
NEBRASKA CITY  SUNNY     40  33  76 S16       29.77S WCI  31
BEATRICE       SUNNY     43  34  70 S12       29.73S
FALLS CITY     SUNNY     41  36  82 S14       29.80F

...NORTHERN KANSAS...

CITY           SKY/WX    TMP DP  RH WIND       PRES   REMARKS
GOODLAND       CLOUDY    42  19  39 NW6       29.56S
HILL CITY      CLOUDY    41  27  57 S13       29.60F
NORTON         SUNNY     39  21  48 SW8       29.58S WCI  34
PHILLIPSBURG   SUNNY     43  28  56 S13G20    29.62F
SMITH CENTER   SUNNY     39  30  70 S12       29.66S WCI  32
BELOIT         SUNNY     43  32  65 SE9       29.68S
RUSSELL        SUNNY     44  32  62 S22       29.63F
CONCORDIA      NOT AVBL
SALINA         SUNNY     44  34  67 S17G24    29.75S
TOPEKA         SUNNY     43  37  79 S13       29.84F



USA.gov is the U.S. government's official web portal to all federal, state and local government web resources and services.